Theta_e
312 310 310 310 308 308 309 312 313 312 313 313 311 310 309 313 313 313 314 314 314 314 315 316 316 316 316 316 316 317 322 326 330 332 334 333 332 330 331 332 331 330 329 329
309 309 309 309 309 310 311 312 312 311 312 312 311 310 309 309 311 313 313 313 314 314 314 314 315 316 317 316 316 316 317 321 325 329 331 332 332 332 330 333 331 332 328 328
309 310 310 311 312 312 312 311 312 311 311 310 310 307 308 309 311 313 314 313 314 315 316 315 315 315 316 316 316 316 316 316 319 322 329 332 333 333 332 330 334 333 330 329
312 312 311 312 312 311 312 311 312 312 310 309 309 307 308 309 308 308 313 312 313 314 315 315 316 316 315 316 316 316 316 316 317 320 324 327 328 329 327 328 329 331 333 331
311 312 312 312 312 311 311 311 312 312 310 312 310 309 307 307 309 308 309 312 316 316 316 316 316 316 317 316 316 316 316 316 316 317 320 322 326 327 328 327 327 327 331 331
310 311 310 310 311 311 310 311 309 307 306 308 308 307 305 308 310 311 311 313 313 315 314 314 314 314 314 314 314 316 316 316 316 317 318 319 319 323 325 326 326 325 325 328
312 311 311 311 311 311 310 308 308 309 309 308 307 308 307 308 308 310 310 311 312 313 314 315 315 314 314 315 314 314 316 316 315 316 316 317 320 323 323 323 323 322 322 322
311 312 310 310 310 311 309 307 308 307 310 309 308 310 310 309 309 310 313 313 314 315 315 315 315 315 315 315 314 313 314 314 315 315 315 315 315 317 318 318 318 317 316 316
310 310 309 309 309 310 311 310 307 308 296 306 308 308 308 308 309 311 312 314 314 315 314 315 314 314 315 315 314 314 314 313 313 313 313 313 313 313 313 313 313 313 313 313
308 311 309 310 310 309 309 308 311 308 307 306 308 308 309 311 310 310 310 313 314 314 314 314 314 314 314 314 314 315 314 314 313 313 314 314 314 313 313 312 313 312 312 312
309 309 310 309 310 310 310 310 310 309 307 307 306 308 305 309 310 309 311 313 313 313 313 314 313 313 313 314 314 314 314 315 315 315 315 314 314 314 314 314 314 314 313 313
309 309 309 310 308 308 309 309 310 310 309 306 308 310 307 308 307 309 311 311 312 312 313 313 313 313 313 314 314 314 314 314 314 314 314 313 314 314 314 314 314 313 313 313
311 311 309 311 310 309 310 310 309 308 306 307 308 311 305 307 307 308 309 310 311 313 313 313 314 314 314 314 314 314 314 314 313 313 313 313 313 313 313 314 312 312 312 311
311 310 309 311 312 311 313 311 313 310 306 308 310 311 309 308 308 310 311 312 313 313 312 313 314 314 313 313 313 314 314 314 314 314 313 313 313 312 313 312 312 311 311 311
310 308 311 311 311 312 313 312 312 313 313 312 313 313 312 311 310 311 312 311 312 312 312 312 313 313 313 313 314 314 314 313 313 313 313 312 312 312 312 311 311 311 310 310
307 308 310 308 310 311 311 310 311 311 311 312 311 312 310 310 310 310 310 309 308 308 308 308 309 310 311 312 312 312 312 312 311 312 312 312 311 311 311 311 310 310 310 310
305 308 306 304 304 307 305 306 307 308 309 310 311 310 308 307 306 306 307 307 305 306 308 308 308 308 308 308 308 309 310 311 310 310 310 310 311 311 311 311 311 310 309 308
304 301 297 296 295 305 302 300 304 307 307 308 309 308 306 305 304 304 307 304 304 304 305 306 306 307 307 307 308 309 307 308 308 308 307 307 307 308 308 309 309 310 309 308
302 300 296 298 290 296 298 298 298 299 301 304 305 303 303 301 301 303 306 302 303 303 305 305 304 304 304 305 306 308 308 306 306 307 307 307 307 307 307 307 307 307 308 307
302 300 298 284 289 292 295 301 300 302 300 302 303 302 301 301 298 296 300 300 302 303 305 304 304 304 303 303 303 305 305 306 306 306 306 306 305 305 306 306 305 305 304 304
303 303 303 290 289 292 296 301 302 297 298 302 301 301 300 299 299 299 299 301 303 304 303 302 302 302 301 301 301 302 303 304 305 305 305 304 303 303 302 303 303 302 302 301
297 298 298 300 302 299 298 300 300 299 301 302 301 299 299 299 299 300 300 303 303 301 300 300 299 299 299 299 300 300 301 303 303 303 303 302 301 300 300 300 299 299 300 299
297 295 295 296 298 298 299 301 299 300 300 300 299 299 298 298 299 302 301 299 300 299 297 298 299 299 298 298 298 299 300 300 301 301 301 301 298 297 297 297 297 297 297 296
295 295 295 296 296 296 300 298 299 300 299 297 296 296 298 299 300 300 299 298 300 299 297 297 298 298 298 297 296 297 298 299 299 299 299 299 297 294 294 294 294 295 293 293
294 294 291 291 295 296 297 297 296 295 295 295 296 296 296 298 298 298 297 299 299 297 297 297 298 298 298 297 297 296 296 298 298 297 296 295 294 293 292 291 293 293 292 291
293 294 295 293 295 295 294 295 294 294 295 295 295 297 297 298 297 297 296 297 297 296 296 296 296 296 297 297 296 297 296 296 296 295 293 293 293 292 291 291 289 290 289 290
Wind_Speed
3 4 6 10 8 4 5 4 3 2 3 4 7 7 11 22 21 23 27 28 30 31 29 28 25 26 29 32 33 33 35 37 39 42 42 41 41 39 39 40 38 36 35 33
5 4 8 2 4 4 3 2 4 2 1 3 4 10 10 13 21 29 29 28 29 31 30 30 28 28 29 31 34 36 36 38 40 43 44 44 41 42 39 42 42 40 39 39
6 4 7 6 5 6 5 5 3 4 1 1 3 8 6 5 7 14 21 22 20 19 17 16 21 25 27 32 32 36 37 38 38 40 44 46 46 45 43 45 44 44 42 42
5 4 5 5 5 5 5 5 3 2 3 4 2 5 5 7 10 8 23 17 14 13 15 14 13 14 19 25 26 34 39 40 38 40 44 45 46 48 45 45 45 46 44 44
7 6 5 4 6 5 6 3 2 2 3 2 3 1 7 4 8 10 14 6 9 11 10 7 5 6 9 12 16 22 35 42 41 40 41 42 45 46 45 43 43 45 48 47
5 1 5 7 3 2 6 6 7 5 3 3 7 6 5 4 4 4 7 9 9 8 8 7 5 6 10 12 16 20 23 32 39 39 39 40 40 42 43 43 42 43 43 44
1 1 1 4 5 4 4 6 2 3 2 6 2 2 7 7 6 2 6 9 9 9 11 11 10 9 11 11 11 13 17 20 27 33 36 36 38 39 41 41 40 40 41 42
7 3 7 5 7 9 7 8 6 7 4 4 1 5 5 1 4 9 10 13 14 15 15 18 19 19 16 13 9 9 12 15 18 23 27 30 32 36 37 37 37 38 39 39
6 5 1 1 4 8 5 4 5 6 3 3 4 5 10 6 4 12 14 16 16 19 20 23 24 27 28 23 17 14 13 15 16 18 22 25 27 29 31 31 31 34 35 35
7 3 1 1 3 4 5 7 3 3 2 4 4 4 6 3 3 8 11 16 17 16 16 22 17 21 24 24 24 23 16 12 11 12 12 13 16 19 22 24 26 28 29 31
6 4 2 4 5 8 3 3 3 5 5 5 1 5 7 5 9 7 7 14 18 23 26 25 15 20 20 21 21 20 19 15 7 5 7 13 15 16 18 21 23 25 26 29
4 5 4 5 2 3 3 6 6 5 4 3 3 7 5 8 12 9 10 15 22 26 25 19 20 20 18 19 21 21 21 20 18 17 17 20 18 19 24 27 28 29 29 30
6 1 3 4 3 1 2 1 3 4 3 6 4 5 3 10 6 1 7 18 26 25 23 21 20 24 28 30 29 24 20 19 18 20 23 25 25 24 25 29 31 31 32 33
5 3 5 7 4 3 5 3 3 3 3 4 13 10 11 11 10 24 30 32 29 25 17 20 22 25 28 30 31 24 18 19 21 24 27 28 28 30 33 33 34 34 34 35
3 4 2 3 5 4 5 6 5 5 4 4 1 9 5 7 10 19 18 15 17 17 19 18 19 20 22 25 26 24 24 24 25 28 30 31 31 34 36 36 37 38 38 37
4 2 2 2 4 5 5 10 8 8 5 11 7 20 12 19 7 8 12 13 13 15 15 16 17 18 20 21 22 25 27 27 28 29 32 33 34 35 36 36 35 36 37 38
4 5 3 2 4 4 7 10 13 8 6 9 11 17 4 3 3 7 10 7 13 16 16 17 18 19 20 22 25 27 29 32 32 32 32 33 34 33 32 33 34 33 32 31
7 6 3 3 2 3 6 2 3 12 9 10 7 2 2 5 10 9 7 11 16 19 20 19 19 20 21 22 22 25 28 30 31 31 32 31 31 32 31 31 33 34 35 34
2 4 2 5 4 6 8 6 7 8 8 7 6 4 1 10 13 4 8 16 18 20 21 20 21 23 23 24 25 27 27 32 31 31 31 31 32 32 31 30 30 31 32 31
1 3 4 3 5 8 6 2 5 5 4 9 8 5 1 5 4 4 15 21 20 21 19 21 24 25 25 26 27 29 29 29 32 33 32 31 30 30 31 32 30 28 29 30
5 4 10 4 3 8 10 9 4 5 7 14 9 4 1 4 9 24 26 25 23 21 23 23 23 25 26 28 27 28 29 28 28 28 29 30 30 29 28 30 31 28 26 26
7 7 5 4 6 11 9 6 8 4 12 8 3 8 12 14 20 22 25 22 19 21 23 25 27 28 28 28 30 31 27 27 28 28 27 29 30 29 28 27 27 26 24 22
2 6 6 9 7 6 7 5 8 4 6 3 4 9 14 18 21 20 21 26 28 25 25 26 27 29 28 28 29 29 28 28 28 28 30 29 29 29 27 25 23 21 20 18
4 5 3 3 6 8 12 3 1 10 2 14 14 18 16 18 20 22 26 28 28 29 30 30 28 27 28 27 27 28 29 31 31 31 30 29 27 24 22 21 18 16 15 12
6 7 5 3 6 3 5 4 7 17 22 21 27 27 23 21 23 24 26 25 28 29 29 29 30 31 30 30 28 28 29 30 31 29 27 25 22 20 18 18 15 12 11 11
8 6 5 5 6 2 14 22 24 22 24 24 26 28 25 21 20 20 23 26 28 29 31 31 31 32 32 31 29 28 27 27 29 28 23 21 21 19 17 13 11 5 3 3
Wind_Direction
123 103 191 202 193 132 148 153 177 236 206 155 226 255 265 276 284 276 272 268 265 263 266 262 258 256 252 248 244 243 240 239 238 235 234 235 235 236 232 235 238 239 243 245
43 212 218 176 175 181 218 226 234 293 72 165 277 267 256 258 264 271 278 280 276 273 268 265 259 255 252 250 247 245 245 242 241 240 242 242 244 244 239 236 240 241 240 243
160 231 152 180 174 161 179 175 200 217 15 284 329 292 311 293 260 285 281 279 286 280 281 276 266 260 258 254 252 248 248 247 245 244 242 242 242 244 246 242 238 240 240 243
211 240 127 155 184 143 184 205 183 176 78 239 52 284 305 269 291 284 280 305 306 295 288 290 285 273 263 257 262 257 251 250 250 245 245 247 249 249 252 248 247 239 237 243
230 180 173 159 205 155 212 151 138 105 119 35 324 67 273 290 277 285 298 331 48 52 55 45 9 308 299 278 270 266 255 249 249 249 250 253 253 256 257 256 254 249 243 244
190 116 153 188 87 148 139 75 44 50 68 296 213 169 286 221 223 328 35 67 43 44 19 5 355 323 306 289 277 267 262 256 251 250 252 255 258 258 259 260 258 258 254 248
8 185 117 139 84 50 87 86 334 339 356 230 52 139 246 264 245 297 31 30 25 23 22 7 348 330 320 313 295 279 265 255 255 253 254 260 261 262 263 265 265 263 261 256
154 228 176 189 172 174 185 155 162 199 200 269 261 236 244 254 270 11 46 75 65 45 32 26 22 13 358 337 321 293 282 269 261 258 259 262 263 263 265 266 267 266 264 262
160 244 16 103 144 148 187 186 166 104 28 55 236 290 306 317 37 78 63 50 45 56 63 47 37 30 26 18 2 337 309 288 273 262 259 261 263 263 265 267 268 268 267 266
198 136 344 207 129 47 157 162 80 1 149 254 258 250 220 195 177 62 44 48 47 46 28 8 15 21 21 15 18 9 359 333 294 285 287 283 276 271 271 268 265 266 268 268
149 116 260 136 202 167 137 163 108 129 156 182 254 258 222 214 113 111 71 49 35 11 2 356 358 3 7 6 3 1 0 3 9 345 328 329 319 300 287 279 275 271 270 270
192 133 158 193 327 202 157 176 154 152 234 232 160 250 136 116 112 87 73 358 344 344 343 342 347 347 348 349 345 342 338 326 319 307 301 309 310 297 289 284 281 275 271 270
169 165 75 8 0 22 151 89 195 117 91 208 149 250 201 102 106 13 327 341 344 344 341 339 334 326 322 325 329 327 320 314 308 300 300 298 293 295 293 291 288 279 274 270
113 106 158 182 143 110 117 8 12 147 152 166 231 266 260 351 360 326 330 335 335 334 343 330 325 320 316 317 318 318 309 303 300 293 293 290 287 288 292 288 284 280 278 277
74 112 98 105 134 119 179 221 220 205 178 194 355 293 288 301 284 302 321 337 340 336 334 334 328 320 315 310 308 308 308 308 299 291 287 288 288 289 287 283 280 278 277 276
15 121 79 36 185 176 220 227 239 239 214 256 257 269 290 285 341 6 345 0 14 4 355 348 339 331 327 321 317 312 310 307 301 294 290 288 287 287 285 283 282 279 276 275
115 123 105 256 346 111 301 224 201 206 203 220 241 249 339 43 62 330 336 22 6 357 344 340 338 337 335 334 327 320 312 308 308 302 298 295 292 289 287 285 284 283 281 279
135 124 116 155 27 219 243 332 255 220 234 217 247 134 186 282 306 300 196 1 350 344 342 336 330 328 324 320 319 321 321 314 310 309 307 305 301 297 294 289 286 284 284 282
72 122 83 145 189 298 286 239 175 170 249 210 200 132 115 341 338 311 168 347 331 327 326 328 326 326 323 319 315 313 313 317 313 309 308 307 305 303 302 301 296 289 284 279
42 62 126 118 146 211 237 322 137 97 283 187 174 157 191 3 354 252 305 318 313 315 319 315 315 317 319 321 319 313 310 313 316 311 308 307 306 304 304 302 300 295 288 282
172 171 201 169 200 279 242 236 4 103 238 159 161 174 243 205 259 301 308 307 313 315 315 316 316 316 319 319 317 317 317 310 306 307 308 307 305 305 302 299 299 296 293 287
163 161 201 154 200 258 182 121 173 191 143 159 198 294 293 297 300 299 305 313 318 320 317 316 317 320 324 323 320 317 315 310 306 307 306 306 306 304 302 299 296 293 293 289
199 183 177 181 202 231 195 159 114 159 152 222 291 317 309 298 294 291 296 305 309 313 317 317 316 316 319 320 321 320 320 314 310 310 307 306 305 303 300 297 293 293 291 286
245 167 193 101 227 220 163 260 82 174 246 318 315 325 305 291 290 289 297 300 299 304 308 309 309 309 310 311 313 315 315 313 310 307 305 303 301 301 298 289 287 288 287 281
209 151 178 254 276 232 234 209 320 319 314 307 305 303 296 289 282 284 291 294 296 299 303 304 304 304 304 304 306 307 311 311 310 306 306 302 298 297 290 283 273 270 266 270
182 179 193 220 176 133 293 294 303 310 307 307 310 302 294 281 275 280 290 293 293 293 295 294 294 295 297 297 298 298 300 305 305 303 301 300 295 290 283 273 265 211 217 191